Location: Springfield
(37.2150°N, 93.2980°W)
Time: 05:39:02
(UTC-05:00)

ISS - Visible Passes

Search period start: 24 April 2019 00:00
Search period end: 04 May 2019 00:00
Orbit: 408 x 410 km, 51.6° (Epoch: 24 April)

Date Brightness Start Highest point End Pass type
(mag) Time Alt. Az. Time Alt. Az. Time Alt. Az.
27 Apr -2.0 05:23:44 10° SSW 05:26:34 26° SE 05:29:24 10° ENE visible
28 Apr -1.3 04:35:01 13° SE 04:35:53 14° SE 04:37:39 10° E visible
29 Apr -3.8 05:19:05 20° SW 05:21:15 81° SE 05:24:34 10° NE visible
30 Apr -2.9 04:30:19 38° SE 04:30:26 38° SE 04:33:32 10° ENE visible
01 May -0.9 03:41:27 13° E 03:41:27 13° E 03:42:09 10° E visible
01 May -2.8 05:14:12 19° W 05:16:05 37° NW 05:19:11 10° NE visible
02 May -3.7 04:25:15 69° NNW 04:25:15 69° NNW 04:28:26 10° NE visible
03 May -1.2 03:36:14 21° ENE 03:36:14 21° ENE 03:37:29 10° ENE visible
03 May -1.7 05:08:58 12° WNW 05:11:02 18° NNW 05:13:27 10° NNE visible
